Regional Weather Roundup
Issued by NWS

Home | Current Version | Previous Version | Text Only | Print | Product List | Glossary On
Versions: 1 2 3 4 5 6 7 8 9 10 11 12 13 14 15 16 17 18 19 20 21 22 23 24 25 26 27 28 29 30 31 32 33 34 35 36 37 38 39 40 41 42 43 44 45 46 47 48 49 50
273
ASUS44 KLIX 111310
RWRLA
LOUISIANA WEATHER ROUNDUP
NATIONAL WEATHER SERVICE NEW ORLEANS LA
700 AM CST THU FEB 11 2016

NOTE: "FAIR" INDICATES FEW OR NO CLOUDS BELOW 12,000 FEET WITH NO
      SIGNIFICANT WEATHER AND/OR OBSTRUCTIONS TO VISIBILITY.
      SKY/WX - SKY CONDITION AND SIGNIFICANT WEATHER.
      TMP - AIR TEMPERATURE.    DP   - DEWPOINT TEMPERATURE.
      RH  - RELATIVE HUMIDITY.  PRES - PRESSURE.
      HX  - HEAT INDEX.         WCI  - WIND CHILL INDEX.

*  THESE STATIONS ARE NOT NWS OR FAA STATIONS AND ARE NOT UNDER
   NWS QUALITY CONTROL.

LAZ040-048-061>063-065-066-069-111400-
SOUTHEAST LOUISIANA

CITY           SKY/WX    TMP DP  RH WIND       PRES   REMARKS
N.O. AUDUBON     N/A     50  49  97 MISG        N/A
N.O. INTL ARPT PTCLDY    48  42  80 S8        30.21S
N.O. LAKEFRONT CLEAR     51  46  83 SW12      30.22R
N.O. DOWNTOWN* FAIR      52  46  82 MISG      30.23R
RESERVE*       FAIR      49  45  85 W3        30.21S
SLIDELL        PTCLDY    45  43  93 CALM      30.21R
BATON ROUGE    PTCLDY    51  47  86 SW9       30.19R
BOOTHVILLE     CLEAR     54  50  86 SW7       30.25S
BELLE CHASSE   PTCLDY    43  42  97 SW8       30.22S
BOGALUSA*        N/A     35  32  89 CALM      30.21S
GALLIANO*      SUNNY     52  49  91 S6        30.23S
NEW ROADS*     FAIR      38  37  97 CALM      30.19R
GONZALES*      FAIR      43  42  98 CALM      30.20S
HAMMOND*       CLEAR     36  34  93 CALM      30.20S
HOUMA*         CLEAR     46  46 100 S3        30.23R
PORT FOURCHON* SUNNY     57  52  82 SW8       30.25R

$$

LAZ041-044-053-054-111400-
SOUTHWEST LOUISIANA

CITY           SKY/WX    TMP DP  RH WIND       PRES   REMARKS
LAKE CHARLES   CLEAR     54  53  97 SW6       30.19R
LAFAYETTE      CLEAR     54  52  93 SW8       30.19S
PATTERSON        N/A     46  43  87 SW3       30.22S VSB 1/2
SALT POINT       N/A     54  53  97 VRB3      30.21R
NEW IBERIA     FOG       47  46  97 SW5       30.21R VSB 3/4
CHENAULT AIRPK CLEAR     55  54  94 SW9       30.19R

$$

LAZ027-028-111400-
CENTRAL LOUISIANA

CITY           SKY/WX    TMP DP  RH WIND       PRES   REMARKS
FORT POLK      CLEAR     53  50  90 SW10      30.16R FOG
ALEXANDRIA INT CLEAR     47  46  97 S3        30.14R
ALEXANDRIA     PTCLDY    53  48  83 SW10      30.14S

$$

LAZ001-002-111400-
NORTHWEST LOUISIANA

CITY           SKY/WX    TMP DP  RH WIND       PRES   REMARKS
SHREVEPORT     CLEAR     52  39  61 SW12      30.07S
BARKSDALE AFB  CLEAR     51  38  61 SW7       30.07S
DTN SHREVEPORT CLEAR     51  38  60 SW9       30.07F

$$

LAZ014-016-111400-
NORTHEAST LOUISIANA

CITY           SKY/WX    TMP DP  RH WIND       PRES   REMARKS
MONROE         CLEAR     48  42  80 SW8       30.09S
TALLULAH       CLEAR     50  44  80 VRB6      30.11R

$$





USA.gov is the U.S. government's official web portal to all federal, state and local government web resources and services.